Simultaneous Nadir Overpasses (SNOs) Predictions

Prediction of SNOs between LANDSAT-8 and METOP-B Satellite Orbit:

Table of predicted SNOs for the next 14.0 days since TLE Epoch: 3/26/2016
Index Date (LANDSAT-8) Time (LANDSAT-8) Lat,Lon (LANDSAT-8) SZA (LANDSAT-8 ) Date (METOP-B) Time (METOP-B) Lat,Lon (METOP-B) SZA (METOP-B ) Distance(km) Time Diff (sec)
1 03/26/2016 05:52:16 81.11, 131.28 80.59 03/26/2016 05:51:13 81.12, 131.40 80.58 2.13 63
2 03/26/2016 06:41:42 -81.13, -60.82 99.39 03/26/2016 06:41:53 -81.13, -60.88 99.39 0.95 11
3 03/29/2016 01:26:29 81.12,-162.25 79.52 03/29/2016 01:25:36 81.12,-162.10 79.52 2.56 53
4 03/29/2016 02:15:55 -81.13, 5.68 100.46 03/29/2016 02:16:16 -81.13, 5.66 100.45 0.23 21
5 03/31/2016 21:00:42 81.11, -95.86 78.44 03/31/2016 21:00:00 81.11, -96.00 78.41 2.49 42
6 03/31/2016 21:50:08 -81.13, 72.09 101.53 03/31/2016 21:50:39 -81.14, 72.18 101.50 1.71 31
7 04/03/2016 16:34:53 81.13, -29.19 77.42 04/03/2016 16:34:21 81.12, -29.18 77.41 0.44 32
8 04/03/2016 17:24:19 -81.15, 138.77 102.55 04/03/2016 17:25:01 -81.14, 138.67 102.54 1.99 42
9 04/06/2016 12:09:06 81.11, 37.02 76.35 04/06/2016 12:08:45 81.11, 36.88 76.32 2.49 21




NCC Satellite Simultaneous Nadir Overpasses (SNOs) Prediction Service
